Home > Weather > Geelong > Past weeks

Flag for Australia Past Weather in Geelong, Victoria, Australia — Yesterday and Last 2 Weeks

Now
61 °F

Refreshingly cool.


Feels Like: 61 °F
Forecast: 51 / 60 °F
Wind: 8 mph from East

Location: Geelong Airport Aws

Current Time: Aug 29, 2016 at 1:52:50 PM

Latest Report: Aug 29, 2016 at 12:00 PM


Visibility: N/A

Pressure: 30.20 "Hg

Humidity: 59%

Dew Point: 47 °F

Location of GeelongLocation

Past Weather in Geelong — Graph

°F

Geelong Temperature Yesterday

Maximum temperature yesterday: 65 °F (at 2:00 PM)
Minimum temperature yesterday: 47 °F (at 11:00 PM)
Average temperature yesterday: 55 °F

High & Low Weather Summary for the Past Weeks

 TemperatureHumidityPressure
High72 °F (Aug 18, 2:00 PM)96% (Aug 16, 5:00 AM)30.43 "Hg (Aug 16, 5:00 AM)
Low40 °F (Aug 29, 6:00 AM)40% (Aug 16, 3:00 PM)29.66 "Hg (Aug 19, 5:00 AM)
Average52 °F80%30.06 "Hg
* Reported Aug 14 12:00 PM — Aug 29 12:00 PM, Geelong, Weather by CustomWeather, © 2016

Note: Actual official high and low records may vary slightly from our data, if they occured in-between our weather recording intervals... More about our weather records

Advertising

Geelong Weather History for the Previous 24 Hours

Scroll right to see more
 ConditionsComfort  
Time TempWeatherWind HumidityBarometerVisibility
12:00 PM
Mon, Aug 29
61 °FRefreshingly cool.8 mph59%30.20 "HgN/A
11:00 AM56 °FCool.5 mph84%30.23 "HgN/A
9:00 AM53 °FCool.5 mph90%30.25 "HgN/A
8:00 AM45 °FCool.1 mph96%30.23 "HgN/A
6:00 AM40 °FChilly.No wind95%30.19 "HgN/A
5:00 AM40 °FChilly.2 mph95%30.18 "HgN/A
3:00 AM41 °FQuite cool.No wind95%30.17 "HgN/A
2:00 AM42 °FQuite cool.No wind95%30.18 "HgN/A
12:00 AM46 °FCool.No wind96%30.17 "HgN/A
11:00 PM
Sun, Aug 28
47 °FCool.No wind94%30.17 "HgN/A
9:00 PM49 °FCool.2 mph94%30.16 "HgN/A
8:00 PM50 °FCool.1 mph93%30.14 "HgN/A
6:00 PM54 °FCool.5 mph87%30.10 "HgN/A
5:00 PM61 °FRefreshingly cool.5 mph53%30.09 "HgN/A
3:00 PM64 °FMild.9 mph45%30.08 "HgN/A
2:00 PM65 °FMild.10 mph43%30.08 "HgN/A
Weather by CustomWeather, © 2016

See weather overviewHow to use our weather pages